Weather History for Ostrava, Czech Republic

Change the Weather History Date:

Wednesday, April 3, 2013

  Actual Average (EPKT) Record (EPKT)
Temperature  
Mean Temperature 30 °F -  
Max Temperature 32 °F 57 °F 69 °F (2014)
Min Temperature 29 °F 38 °F 24 °F (2005)
Degree Days  
Heating Degree Days 34    
Moisture  
Dew Point 29 °F    
Average Humidity 89    
Maximum Humidity 93    
Minimum Humidity 68    
Precipitation  
Precipitation 0.04 in 0.07 in - ()
Sea Level Pressure  
Sea Level Pressure 29.84 in    
Wind  
Wind Speed 16 mph ()    
Max Wind Speed 21 mph    
Max Gust Speed -    
Visibility 2.6 miles    
Events Rain , Snow    
Averages and records for this station are not official NWS values.
T = Trace of Precipitation, MM = Missing Value Source: Averaged Metar Reports

Daily Weather History Graph

Daily Weather History Graph

Search for Another Location

Airport:

Trip Planner

Search our weather history database for the weather conditions in past years. The results will help you decide how hot, cold, wet, or windy it might be!

Date:

Astronomy

Apr. 03, 2013 Rise Set
Actual Time 6:20 AM CEST 7:22 PM CEST
Civil Twilight 5:47 AM CEST 7:55 PM CEST
Nautical Twilight 5:08 AM CEST 8:34 PM CEST
Astronomical Twilight 4:26 AM CEST 9:16 PM CEST
Moon 2:23 AM CEST (4/3) 11:38 AM CEST (4/3)
Length of Visible Light 14h 07m
Length of Day
13h 02m
Waning Gibbous, 47% of the Moon is Illuminated
Apr 3
Waning Gibbous
Apr 10
New
Apr 18
First Quarter
Apr 25
Full
May 2
Last Quarter

Hourly Weather History & Observations

Time (CEST) Temp. Windchill Dew Point Humidity Pressure Visibility Wind Dir Wind Speed Gust Speed Precip Events Conditions
12:00 AM 33.8 °F 23.2 °F 26.6 °F 75% 29.86 in 6.2 mi NNE 17.3 mph - N/A   Mostly Cloudy
12:30 AM 33.8 °F 22.8 °F 26.6 °F 75% 29.86 in 6.2 mi NNE 18.4 mph - N/A   Mostly Cloudy
1:00 AM 33.8 °F 22.2 °F 26.6 °F 75% 29.86 in 6.2 mi NNE 20.7 mph - N/A   Mostly Cloudy
1:30 AM 33.8 °F 23.2 °F 26.6 °F 75% 29.86 in 6.2 mi NNE 17.3 mph - N/A   Mostly Cloudy
2:00 AM 33 °F - 26 °F 68% 29.87 in 4 mi NNE 17.9 mph - - Snow Light Snow
2:00 AM 32.0 °F 20.8 °F 26.6 °F 80% 29.86 in 4.3 mi NNE 17.3 mph - N/A Snow Light Snow
2:30 AM 32.0 °F 20.8 °F 28.4 °F 87% 29.86 in 2.5 mi NNE 17.3 mph - N/A Snow Light Snow
3:00 AM 30.2 °F 18.5 °F 28.4 °F 93% 29.86 in 2.5 mi NNE 17.3 mph - N/A Snow Light Snow
3:30 AM 30.2 °F 17.8 °F 28.4 °F 93% 29.83 in 1.6 mi NNE 19.6 mph - N/A Snow Light Snow
4:00 AM 30.2 °F 18.1 °F 28.4 °F 93% 29.83 in 1.6 mi NNE 18.4 mph - N/A Snow Snow
4:30 AM 30.2 °F 18.1 °F 28.4 °F 93% 29.83 in 1.6 mi NNE 18.4 mph - N/A Snow Snow
5:00 AM 30.2 °F 18.1 °F 28.4 °F 93% 29.83 in 1.6 mi NNE 18.4 mph - N/A Snow Snow
5:30 AM 30.2 °F 18.1 °F 28.4 °F 93% 29.83 in 1.6 mi NNE 18.4 mph - N/A Snow Snow
5:44 AM 30.2 °F 18.1 °F 28.4 °F 93% 29.83 in 1.6 mi NNE 18.4 mph - N/A Snow Snow
6:00 AM 30.2 °F 18.1 °F 28.4 °F 93% 29.83 in 1.6 mi NNE 18.4 mph - N/A Snow Snow
6:30 AM 30.2 °F 18.1 °F 28.4 °F 93% 29.83 in 0.9 mi NNE 18.4 mph - N/A Snow Snow
7:00 AM 30.2 °F 18.1 °F 28.4 °F 93% 29.83 in 0.9 mi NNE 18.4 mph - N/A Snow Snow
7:30 AM 30.2 °F 18.1 °F 28.4 °F 93% 29.83 in 0.7 mi NNE 18.4 mph - N/A Snow Snow
8:00 AM 30 °F - 28 °F 89% 29.86 in 1 mi NNE 17.9 mph - - Snow Snow
8:00 AM 30.2 °F 18.1 °F 28.4 °F 93% 29.83 in 0.7 mi NNE 18.4 mph - N/A Snow Snow
8:30 AM 30.2 °F 18.5 °F 28.4 °F 93% 29.83 in 0.7 mi NNE 17.3 mph - N/A Snow Snow
9:00 AM 30.2 °F 18.1 °F 28.4 °F 93% 29.83 in 1.1 mi NNE 18.4 mph - N/A Snow Snow
9:30 AM 30.2 °F 18.5 °F 28.4 °F 93% 29.83 in 0.9 mi NNE 17.3 mph - N/A Snow Snow
10:00 AM 30.2 °F 17.8 °F 28.4 °F 93% 29.83 in 0.9 mi NNE 19.6 mph - N/A Snow Snow
10:30 AM 30.2 °F 18.5 °F 28.4 °F 93% 29.83 in 1.9 mi North 17.3 mph - N/A Snow Light Snow
11:00 AM 32.0 °F 20.8 °F 28.4 °F 87% 29.83 in 1.1 mi NNE 17.3 mph - N/A Snow Snow
11:30 AM 32.0 °F 20.8 °F 30.2 °F 93% 29.83 in 1.2 mi NNE 17.3 mph - N/A Snow Light Snow
12:00 PM 32.0 °F 20.1 °F 28.4 °F 87% 29.83 in 2.5 mi NNE 19.6 mph - N/A Snow Light Snow
12:11 PM 32.0 °F 20.5 °F 28.4 °F 87% 29.83 in 3.1 mi NNE 18.4 mph - N/A Snow Light Snow
12:19 PM 32.0 °F 20.5 °F 28.4 °F 87% 29.83 in 2.5 mi NNE 18.4 mph - N/A Snow Light Snow
12:30 PM 32.0 °F 20.8 °F 28.4 °F 87% 29.83 in 2.5 mi NNE 17.3 mph - N/A Snow Light Snow
1:00 PM 32.0 °F 20.8 °F 28.4 °F 87% 29.83 in 3.7 mi NNE 17.3 mph - N/A   Overcast
1:30 PM 32.0 °F 21.6 °F 28.4 °F 87% 29.83 in 3.7 mi NNE 15.0 mph - N/A   Overcast
2:00 PM 33 °F - 29 °F 81% 29.85 in 4 mi NNE 15.7 mph - - Snow Light Snow
2:00 PM 32.0 °F 21.6 °F 28.4 °F 87% 29.83 in 4.3 mi NNE 15.0 mph - N/A Snow Light Snow
2:30 PM 32.0 °F 21.2 °F 30.2 °F 93% 29.83 in 3.7 mi NNE 16.1 mph - N/A Snow Light Snow
3:00 PM 32.0 °F 21.6 °F 28.4 °F 87% 29.83 in 4.3 mi NNE 15.0 mph - N/A   Overcast
3:30 PM 32.0 °F 21.2 °F 28.4 °F 87% 29.83 in 4.3 mi NNE 16.1 mph - N/A   Overcast
4:00 PM 33.8 °F 23.2 °F 30.2 °F 87% 29.83 in 4.3 mi North 17.3 mph - N/A   Overcast
4:30 PM 32.0 °F 21.6 °F 28.4 °F 87% 29.83 in 3.1 mi North 15.0 mph - N/A Snow Light Snow
5:00 PM 32.0 °F 21.6 °F 30.2 °F 93% 29.83 in 3.7 mi North 15.0 mph - N/A   Overcast
5:30 PM 32.0 °F 22.1 °F 30.2 °F 93% 29.83 in 2.5 mi North 13.8 mph - N/A   Overcast
6:00 PM 32.0 °F 22.1 °F 30.2 °F 93% 29.83 in - North 13.8 mph - N/A   Light Drizzle
6:07 PM 32.0 °F 21.6 °F 30.2 °F 93% 29.83 in 1.4 mi North 15.0 mph - N/A   Drizzle
6:30 PM 32.0 °F 22.1 °F 30.2 °F 93% 29.83 in 1.2 mi NNE 13.8 mph - N/A   Drizzle
7:00 PM 32.0 °F 22.5 °F 30.2 °F 93% 29.83 in 1.6 mi North 12.7 mph - N/A   Light Drizzle
7:30 PM 32.0 °F 22.1 °F 30.2 °F 93% 29.83 in 1.6 mi North 13.8 mph - N/A   Light Drizzle
8:00 PM 32 °F - 30 °F 91% 29.90 in 2 mi North 13.4 mph - - Rain Light Drizzle
8:00 PM 32.0 °F 22.1 °F 30.2 °F 93% 29.86 in 2.5 mi North 13.8 mph - N/A   Overcast
8:30 PM 32.0 °F 22.1 °F 30.2 °F 93% 29.86 in 2.5 mi North 13.8 mph - N/A   Overcast
9:00 PM 32.0 °F 22.1 °F 30.2 °F 93% 29.86 in 2.5 mi North 13.8 mph - N/A   Overcast
9:30 PM 32.0 °F 22.1 °F 30.2 °F 93% 29.86 in 2.5 mi North 13.8 mph - N/A   Overcast
10:00 PM 32.0 °F 22.5 °F 30.2 °F 93% 29.86 in 2.5 mi North 12.7 mph - N/A   Overcast
10:30 PM 32.0 °F 22.5 °F 30.2 °F 93% 29.83 in 2.5 mi North 12.7 mph - N/A   Overcast
11:00 PM 32.0 °F 22.5 °F 30.2 °F 93% 29.83 in 2.2 mi North 12.7 mph - N/A Snow Light Snow
11:30 PM 32.0 °F 23.0 °F 30.2 °F 93% 29.83 in 1.9 mi North 11.5 mph - N/A Snow Light Snow